Home > Time Zones > World Clock > Weather > Mali > Bamako > Past weeks

Flag for Mali Weather past 2 weeks in Bamako, Mali

Now
72 °F

Clear.


Feels Like: 74 °F
Forecast: 62 / 100 °F
Wind: 8 mph from Northeast

Location: Bamako / Senou

Current Time: Mar 4, 2015 at 4:30:45 AM

Latest Report: Mar 4, 2015 at 3:30 AM


Visibility: 10 mi

Pressure: 29.92 "Hg

Humidity: 17%

Dew point: 25 °F

Location of BamakoLocation

Historic Weather in Bamako — Graph

°F

Bamako temperature yesterday

Maximum temperature yesterday: 95 °F (at 4:00 PM)
Minimum temperature yesterday: 66 °F (at 7:00 AM)
Average temperature yesterday: 80 °F

Past Weeks' High & Low Weather Summary

 TemperatureHumidityPressure
High99 °F (Feb 19, 3:30 PM)57% (Feb 17, 9:00 PM)30.09 "Hg (Feb 17, 9:00 PM)
Low64 °F (Feb 23, 5:30 AM)6% (Feb 18, 1:00 PM)29.77 "Hg (Feb 18, 3:00 PM)
Average80 °F14%29.95 "Hg
* Reported Feb 17 3:00 AM — Mar 4 3:00 AM, Bamako, Weather by CustomWeather, © 2015

Note: Actual official high and low records may vary slightly from our data, if they occured in-between our weather recording intervals... More about our weather records

Advertising

Bamako weather history for previous 24 hours

 ConditionsComfort  
Time TempWeatherWind HumidityBarometerVisibility
3:00 AM
Wed, Mar 4
77 °FClear.9 mph14%29.89 "Hg10 mi
2:30 AM73 °FClear.7 mph16%29.92 "Hg10 mi
2:00 AM72 °FClear.7 mph19%29.92 "Hg10 mi
1:30 AM72 °FClear.7 mph19%29.95 "Hg10 mi
1:00 AM75 °FClear.7 mph15%29.95 "Hg10 mi
12:30 AM77 °FClear.9 mph13%29.95 "Hg10 mi
12:00 AM73 °FClear.7 mph17%29.95 "Hg10 mi
11:30 PM
Tue, Mar 3
73 °FClear.7 mph19%29.98 "Hg10 mi
11:00 PM72 °FClear.7 mph20%29.98 "Hg10 mi
10:30 PM73 °FClear.9 mph19%29.98 "Hg10 mi
10:00 PM75 °FClear.9 mph16%29.98 "Hg10 mi
9:30 PM79 °FClear.9 mph15%29.95 "Hg10 mi
9:00 PM79 °FClear.9 mph15%29.95 "Hg10 mi
8:30 PM77 °FClear.9 mph15%29.95 "Hg10 mi
7:30 PM81 °FClear.7 mph12%29.92 "Hg10 mi
7:00 PM82 °FClear.9 mph11%29.89 "Hg10 mi
6:30 PM88 °FSunny.6 mph9%29.89 "Hg10 mi
6:00 PM91 °FSunny.5 mph12%29.86 "Hg10 mi
5:30 PM93 °FSunny.6 mph7%29.89 "Hg10 mi
5:00 PM93 °FPassing clouds.5 mph7%29.86 "HgN/A
4:30 PM93 °FPassing clouds.7 mph7%29.86 "HgN/A
4:00 PM95 °FSunny.5 mph7%29.86 "Hg10 mi
3:30 PM93 °FPassing clouds.10 mph7%29.86 "HgN/A
3:00 PM93 °FPassing clouds.10 mph7%29.89 "HgN/A
2:30 PM93 °FPassing clouds.9 mph7%29.89 "HgN/A
2:00 PM91 °FPassing clouds.12 mph7%29.92 "HgN/A
1:00 PM91 °FPassing clouds.13 mph8%29.95 "HgN/A
12:30 PM90 °FPassing clouds.13 mph8%29.98 "HgN/A
12:00 PM86 °FPassing clouds.12 mph10%29.98 "HgN/A
11:30 AM84 °FSunny.14 mph11%30.01 "Hg10 mi
11:00 AM82 °FPassing clouds.15 mph12%30.01 "HgN/A
10:30 AM81 °FPassing clouds.16 mph12%30.01 "HgN/A
10:00 AM79 °FSunny.18 mph13%30.01 "Hg10 mi
9:30 AM77 °FPassing clouds.21 mph15%30.01 "HgN/A
9:00 AM75 °FSunny.22 mph15%30.01 "Hg10 mi
8:30 AM73 °FSunny.17 mph16%29.98 "Hg10 mi
8:00 AM72 °FSunny.16 mph17%29.98 "Hg10 mi
7:30 AM70 °FSunny.12 mph20%29.98 "Hg10 mi
7:00 AM66 °FSunny.9 mph24%29.95 "Hg10 mi
6:30 AM68 °FClear.9 mph21%29.95 "Hg10 mi
6:00 AM72 °FClear.9 mph19%29.92 "Hg10 mi
5:30 AM70 °FClear.10 mph20%29.95 "Hg10 mi
5:00 AM72 °FClear.10 mph17%29.92 "Hg10 mi
4:30 AM72 °FClear.9 mph17%29.92 "Hg10 mi
4:00 AM73 °FClear.10 mph16%29.92 "Hg10 mi
Weather by CustomWeather, © 2015

See weather overviewHow to use our weather pages